| time (UTC) | temp C | wind direction | speed KPH | gust KPH | rain 1hr cm | rain 24hr cm | rain mn cm | humidity % | barometer mb |
| 20260902222754 | 38 | 0.0 | 0.0 | 0.00 | 0.00 | 0.00 | 24 | 1011.0 | |
| 20260902221754 | 38 | 0.0 | 0.0 | 0.00 | 0.00 | 0.00 | 23 | 1011.0 | |
| 20260902220752 | 39 | 0.0 | 0.0 | 0.00 | 0.00 | 0.00 | 23 | 1011.0 | |
| 20260902215752 | 38 | 0.0 | 0.0 | 0.00 | 0.00 | 0.00 | 23 | 1011.0 | |
| 20260902214751 | 39 | 0.0 | 0.0 | 0.00 | 0.00 | 0.00 | 22 | 1011.4 | |
| 20260902213750 | 38 | 0.0 | 0.0 | 0.00 | 0.00 | 0.00 | 23 | 1011.3 | |
| 20260902212749 | 38 | 0.0 | 0.0 | 0.00 | 0.00 | 0.00 | 24 | 1011.7 | |
| 20260902211748 | 40 | 0.0 | 0.0 | 0.00 | 0.00 | 0.00 | 22 | 1011.4 | |
| 20260902210747 | 40 | 0.0 | 0.0 | 0.00 | 0.00 | 0.00 | 23 | 1011.8 | |
| 20260902205746 | 39 | 0.0 | 0.0 | 0.00 | 0.00 | 0.00 | 23 | 1012.1 | |
| 20260902204745 | 38 | 0.0 | 0.0 | 0.00 | 0.00 | 0.00 | 23 | 1012.0 | |
| 20260902203744 | 39 | 0.0 | 0.0 | 0.00 | 0.00 | 0.00 | 22 | 1012.4 | |
| 20260902202743 | 39 | 0.0 | 0.0 | 0.00 | 0.00 | 0.00 | 22 | 1012.5 | |
| 20260902201741 | 39 | 0.0 | 0.0 | 0.00 | 0.00 | 0.00 | 23 | 1012.5 | |
| 20260902200704 | 39 | 0.0 | 0.0 | 0.00 | 0.00 | 0.00 | 23 | 1012.8 | |
| 20260902195703 | 38 | 0.0 | 0.0 | 0.00 | 0.00 | 0.00 | 25 | 1012.8 | |
| 20260902194702 | 38 | 0.0 | 0.0 | 0.00 | 0.00 | 0.00 | 25 | 1013.1 | |
| 20260902193701 | 38 | 0.0 | 0.0 | 0.00 | 0.00 | 0.00 | 25 | 1013.5 | |
| 20260902192700 | 38 | 0.0 | 0.0 | 0.00 | 0.00 | 0.00 | 25 | 1013.5 | |
| 20260902191700 | 38 | 0.0 | 0.0 | 0.00 | 0.00 | 0.00 | 26 | 1013.9 | |
| 20260902190659 | 38 | 0.0 | 0.0 | 0.00 | 0.00 | 0.00 | 26 | 1013.9 | |
| 20260902185658 | 38 | 0.0 | 0.0 | 0.00 | 0.00 | 0.00 | 26 | 1013.9 | |
| 20260902184657 | 38 | 0.0 | 0.0 | 0.00 | 0.00 | 0.00 | 27 | 1014.2 | |
| 20260902183656 | 37 | 0.0 | 0.0 | 0.00 | 0.00 | 0.00 | 27 | 1014.2 | |
| 20260902182655 | 37 | 0.0 | 0.0 | 0.00 | 0.00 | 0.00 | 27 | 1014.5 | |
| 20260902181521 | 37 | 0.0 | 0.0 | 0.00 | 0.00 | 0.00 | 28 | 1014.5 | |
| 20260902180520 | 37 | 0.0 | 0.0 | 0.00 | 0.00 | 0.00 | 28 | 1014.5 | |
| 20260902175519 | 37 | 0.0 | 0.0 | 0.00 | 0.00 | 0.00 | 28 | 1014.5 | |
| 20260902174518 | 37 | 0.0 | 0.0 | 0.00 | 0.00 | 0.00 | 28 | 1014.5 | |
| 20260902173517 | 36 | 0.0 | 0.0 | 0.00 | 0.00 | 0.00 | 30 | 1014.8 | |
| 20260902172517 | 36 | 0.0 | 0.0 | 0.00 | 0.00 | 0.00 | 31 | 1014.8 | |
| 20260902171516 | 36 | 0.0 | 0.0 | 0.00 | 0.00 | 0.00 | 31 | 1014.8 | |
| 20260902170444 | 36 | 0.0 | 0.0 | 0.00 | 0.00 | 0.00 | 34 | 1014.8 | |
| 20260902165443 | 36 | 0.0 | 0.0 | 0.00 | 0.00 | 0.00 | 34 | 1014.8 | |
| 20260902164411 | 35 | 0.0 | 0.0 | 0.00 | 0.00 | 0.00 | 35 | 1014.8 | |
| 20260902163410 | 35 | 0.0 | 0.0 | 0.00 | 0.00 | 0.00 | 36 | 1014.8 | |
| 20260902162409 | 35 | 0.0 | 0.0 | 0.00 | 0.00 | 0.00 | 36 | 1014.4 | |
| 20260902161409 | 35 | 0.0 | 0.0 | 0.00 | 0.00 | 0.00 | 36 | 1014.7 | |
| 20260902160407 | 34 | 0.0 | 0.0 | 0.00 | 0.00 | 0.00 | 36 | 1014.7 | |
| 20260902155407 | 33 | 0.0 | 0.0 | 0.00 | 0.00 | 0.00 | 39 | 1014.7 | |
| 20260902154405 | 33 | 0.0 | 0.0 | 0.00 | 0.00 | 0.00 | 40 | 1014.3 | |
| 20260902153334 | 32 | 0.0 | 0.0 | 0.00 | 0.00 | 0.00 | 40 | 1014.3 | |
| 20260902152333 | 32 | 0.0 | 0.0 | 0.00 | 0.00 | 0.00 | 40 | 1014.3 | |
| 20260902151332 | 32 | 0.0 | 0.0 | 0.00 | 0.00 | 0.00 | 42 | 1014.2 | |
| 20260902150331 | 32 | 0.0 | 0.0 | 0.00 | 0.00 | 0.00 | 42 | 1014.2 | |
| 20260902145157 | 31 | 0.0 | 0.0 | 0.00 | 0.00 | 0.00 | 42 | 1013.9 | |
| 20260902144054 | 31 | 0.0 | 0.0 | 0.00 | 0.00 | 0.00 | 43 | 1013.8 | |
| 20260902143053 | 31 | 0.0 | 0.0 | 0.00 | 0.00 | 0.00 | 43 | 1013.9 | |
| 20260902142052 | 31 | 0.0 | 0.0 | 0.00 | 0.00 | 0.00 | 43 | 1013.9 | |
| 20260902141051 | 31 | 0.0 | 0.0 | 0.00 | 0.00 | 0.00 | 44 | 1013.9 | |
| 20260902140050 | 30 | 0.0 | 0.0 | 0.00 | 0.00 | 0.00 | 44 | 1013.5 | |
| 20260902135049 | 30 | 0.0 | 0.0 | 0.00 | 0.00 | 0.00 | 45 | 1013.5 | |
| 20260902134048 | 29 | 0.0 | 0.0 | 0.00 | 0.00 | 0.00 | 46 | 1013.5 | |
| 20260902133047 | 29 | 0.0 | 0.0 | 0.00 | 0.00 | 0.00 | 46 | 1013.5 | |
| 20260902132015 | 29 | 0.0 | 0.0 | 0.00 | 0.00 | 0.00 | 46 | 1013.2 | |
| 20260902131014 | 29 | 0.0 | 0.0 | 0.00 | 0.00 | 0.00 | 46 | 1013.2 | |
| 20260902130013 | 29 | 0.0 | 0.0 | 0.00 | 0.00 | 0.00 | 45 | 1013.2 | |
| 20260902125012 | 29 | 0.0 | 0.0 | 0.00 | 0.00 | 0.00 | 45 | 1013.2 | |
| 20260902124012 | 29 | 0.0 | 0.0 | 0.00 | 0.00 | 0.00 | 44 | 1012.9 | |
| 20260902123011 | 29 | 0.0 | 0.0 | 0.00 | 0.00 | 0.00 | 44 | 1012.9 | |
| 20260902122010 | 29 | 0.0 | 0.0 | 0.00 | 0.00 | 0.00 | 44 | 1012.6 | |
| 20260902121009 | 29 | 0.0 | 0.0 | 0.00 | 0.00 | 0.00 | 44 | 1012.6 | |
| 20260902120008 | 30 | 0.0 | 0.0 | 0.00 | 0.00 | 0.00 | 44 | 1012.6 | |
| 20260902115007 | 30 | 0.0 | 0.0 | 0.00 | 0.00 | 0.00 | 44 | 1012.0 | |
| 20260902114007 | 29 | 0.0 | 0.0 | 0.00 | 0.00 | 0.00 | 44 | 1012.0 | |
| 20260902113005 | 29 | 0.0 | 0.0 | 0.00 | 0.00 | 0.00 | 44 | 1012.0 | |
| 20260902112005 | 29 | 0.0 | 0.0 | 0.00 | 0.00 | 0.00 | 44 | 1012.0 | |
| 20260902111004 | 29 | 0.0 | 0.0 | 0.00 | 0.00 | 0.00 | 44 | 1012.0 | |
| 20260902110004 | 30 | 0.0 | 0.0 | 0.00 | 0.00 | 0.00 | 44 | 1012.0 | |
| 20260902105002 | 30 | 0.0 | 0.0 | 0.00 | 0.00 | 0.00 | 43 | 1012.0 | |
| 20260902104001 | 30 | 0.0 | 0.0 | 0.00 | 0.00 | 0.00 | 42 | 1012.0 | |
| 20260902103001 | 30 | 0.0 | 0.0 | 0.00 | 0.00 | 0.00 | 42 | 1012.1 | |
| 20260902102000 | 30 | 0.0 | 0.0 | 0.00 | 0.00 | 0.00 | 41 | 1012.1 | |
| 20260902100959 | 30 | 0.0 | 0.0 | 0.00 | 0.00 | 0.00 | 41 | 1012.1 | |
| 20260902095958 | 30 | 0.0 | 0.0 | 0.00 | 0.00 | 0.00 | 40 | 1012.1 | |
| 20260902094958 | 31 | 0.0 | 0.0 | 0.00 | 0.00 | 0.00 | 40 | 1012.2 | |
| 20260902093956 | 31 | 0.0 | 0.0 | 0.00 | 0.00 | 0.00 | 40 | 1012.2 | |
| 20260902092955 | 31 | 0.0 | 0.0 | 0.00 | 0.00 | 0.00 | 40 | 1012.2 | |
| 20260902091955 | 31 | 0.0 | 0.0 | 0.00 | 0.00 | 0.00 | 39 | 1012.2 | |
| 20260902090923 | 31 | 0.0 | 0.0 | 0.00 | 0.00 | 0.00 | 39 | 1012.2 | |
| 20260902085922 | 31 | 0.0 | 0.0 | 0.00 | 0.00 | 0.00 | 39 | 1012.2 | |
| 20260902084921 | 31 | 0.0 | 0.0 | 0.00 | 0.00 | 0.00 | 39 | 1012.2 | |
| 20260902083848 | 31 | 0.0 | 0.0 | 0.00 | 0.00 | 0.00 | 38 | 1012.3 | |
| 20260902082847 | 32 | 0.0 | 0.0 | 0.00 | 0.00 | 0.00 | 37 | 1012.3 | |
| 20260902081816 | 32 | 0.0 | 0.0 | 0.00 | 0.00 | 0.00 | 36 | 1012.4 | |
| 20260902080815 | 32 | 0.0 | 0.0 | 0.00 | 0.00 | 0.00 | 36 | 1012.4 | |
| 20260902075814 | 32 | 0.0 | 0.0 | 0.00 | 0.00 | 0.00 | 36 | 1012.4 | |
| 20260902074742 | 32 | 0.0 | 0.0 | 0.00 | 0.00 | 0.00 | 36 | 1012.4 | |
| 20260902073741 | 32 | 0.0 | 0.0 | 0.00 | 0.00 | 0.00 | 36 | 1012.4 | |
| 20260902072740 | 33 | 0.0 | 0.0 | 0.00 | 0.00 | 0.00 | 35 | 1012.5 | |
| 20260902071739 | 33 | 0.0 | 0.0 | 0.00 | 0.00 | 0.00 | 34 | 1012.2 | |
| 20260902070738 | 33 | 0.0 | 0.0 | 0.00 | 0.00 | 0.00 | 33 | 1012.2 | |
| 20260902065738 | 33 | 0.0 | 0.0 | 0.00 | 0.00 | 0.00 | 33 | 1012.2 | |
| 20260902064736 | 33 | 0.0 | 0.0 | 0.00 | 0.00 | 0.00 | 33 | 1011.9 | |
| 20260902063704 | 33 | 0.0 | 0.0 | 0.00 | 0.00 | 0.00 | 33 | 1011.9 | |
| 20260902062633 | 33 | 0.0 | 0.0 | 0.00 | 0.00 | 0.00 | 33 | 1011.9 | |
| 20260902061601 | 33 | 0.0 | 0.0 | 0.00 | 0.00 | 0.00 | 33 | 1011.9 | |
| 20260902060600 | 33 | 0.0 | 0.0 | 0.00 | 0.00 | 0.00 | 33 | 1011.9 | |
| 20260902055529 | 33 | 0.0 | 0.0 | 0.00 | 0.00 | 0.00 | 33 | 1012.3 | |
| 20260902054527 | 34 | 0.0 | 0.0 | 0.00 | 0.00 | 0.00 | 33 | 1012.3 | |
| 20260902053527 | 34 | 0.0 | 0.0 | 0.00 | 0.00 | 0.00 | 33 | 1012.3 | |
| 20260902052526 | 34 | 0.0 | 0.0 | 0.00 | 0.00 | 0.00 | 33 | 1012.3 | |
| 20260902051524 | 34 | 0.0 | 0.0 | 0.00 | 0.00 | 0.00 | 34 | 1012.3 | |
| 20260902050421 | 34 | 0.0 | 0.0 | 0.00 | 0.00 | 0.00 | 34 | 1012.3 | |
| 20260902045420 | 34 | 0.0 | 0.0 | 0.00 | 0.00 | 0.00 | 34 | 1012.0 | |
| 20260902044419 | 34 | 0.0 | 0.0 | 0.00 | 0.00 | 0.00 | 33 | 1011.9 | |
| 20260902043418 | 34 | 0.0 | 0.0 | 0.00 | 0.00 | 0.00 | 33 | 1012.0 | |
| 20260902042417 | 34 | 0.0 | 0.0 | 0.00 | 0.00 | 0.00 | 33 | 1012.0 | |
| 20260902041314 | 34 | 0.0 | 0.0 | 0.00 | 0.00 | 0.00 | 33 | 1012.0 | |
| 20260902040313 | 34 | 0.0 | 0.0 | 0.00 | 0.00 | 0.00 | 33 | 1012.0 | |
| 20260902035312 | 34 | 0.0 | 0.0 | 0.00 | 0.00 | 0.00 | 33 | 1011.6 | |
| 20260902034312 | 34 | 0.0 | 0.0 | 0.00 | 0.00 | 0.00 | 33 | 1011.6 | |
| 20260902033311 | 34 | 0.0 | 0.0 | 0.00 | 0.00 | 0.00 | 33 | 1011.3 | |
| 20260902032310 | 35 | 0.0 | 0.0 | 0.00 | 0.00 | 0.00 | 33 | 1011.0 | |
| 20260902031239 | 35 | 0.0 | 0.0 | 0.00 | 0.00 | 0.00 | 33 | 1011.0 | |
| 20260902030237 | 35 | 0.0 | 0.0 | 0.00 | 0.00 | 0.00 | 33 | 1010.7 | |
| 20260902025237 | 35 | 0.0 | 0.0 | 0.00 | 0.00 | 0.00 | 33 | 1010.7 | |
| 20260902024205 | 35 | 0.0 | 0.0 | 0.00 | 0.00 | 0.00 | 32 | 1010.7 | |
| 20260902023204 | 35 | 0.0 | 0.0 | 0.00 | 0.00 | 0.00 | 32 | 1010.7 | |
| 20260902022203 | 35 | 0.0 | 0.0 | 0.00 | 0.00 | 0.00 | 32 | 1010.8 | |
| 20260902021202 | 36 | 0.0 | 0.0 | 0.00 | 0.00 | 0.00 | 31 | 1010.5 | |
| 20260902020202 | 36 | 0.0 | 0.0 | 0.00 | 0.00 | 0.00 | 31 | 1010.5 | |
| 20260902015201 | 36 | 0.0 | 0.0 | 0.00 | 0.00 | 0.00 | 30 | 1010.6 | |
| 20260902014159 | 37 | 0.0 | 0.0 | 0.00 | 0.00 | 0.00 | 30 | 1010.6 | |
| 20260902013056 | 37 | 0.0 | 0.0 | 0.00 | 0.00 | 0.00 | 29 | 1010.7 | |
| 20260902012055 | 37 | 0.0 | 0.0 | 0.00 | 0.00 | 0.00 | 29 | 1010.7 | |
| 20260902011054 | 37 | 0.0 | 0.0 | 0.00 | 0.00 | 0.00 | 28 | 1010.8 | |
| 20260902010053 | 38 | 0.0 | 0.0 | 0.00 | 0.00 | 0.00 | 28 | 1010.8 | |
| 20260902005021 | 38 | 0.0 | 0.0 | 0.00 | 0.00 | 0.00 | 28 | 1011.1 | |
| 20260902004021 | 38 | 0.0 | 0.0 | 0.00 | 0.00 | 0.00 | 28 | 1011.2 | |
| 20260902003019 | 38 | 0.0 | 0.0 | 0.00 | 0.00 | 0.00 | 28 | 1011.2 | |
| 20260902002018 | 38 | 0.0 | 0.0 | 0.00 | 0.00 | 0.00 | 28 | 1011.6 | |
| 20260902001017 | 38 | 0.0 | 0.0 | 0.00 | 0.00 | 0.00 | 28 | 1011.5 | |
| 20260902000049 | 38 | 0.0 | 0.0 | 0.00 | 0.00 | 0.00 | 28 | 1011.5 |